• MPC Preparation (Info)

  • MPEC 2019-T58 : 2019 SN10

    The following Minor Planet Electronic Circular may be linked-to from your own Web pages, but must not otherwise be redistributed electronically.

    A form allowing access to any MPEC is at the bottom of this page.


    Read MPEC 2019-T57 Read MPEC 2019-T59


    M.P.E.C. 2019-T58                               Issued 2019 October 3, 13:20 UT
    
         The Minor Planet Electronic Circulars contain information on unusual
             minor planets and routine data on comets.  They are published
        on behalf of Division F of the International Astronomical Union by the
              Minor Planet Center, Smithsonian Astrophysical Observatory,
                              Cambridge, MA 02138, U.S.A.
    
                 Prepared using the Tamkin Foundation Computer Network
    
                                  MPC@CFA.HARVARD.EDU
                URL https://www.minorplanetcenter.net/    ISSN 1523-6714
    
                                    2019 SN10                                
    
    
    Observations:
         K19S10N  C2019 08 31.58827301 01 29.561+15 00 34.84         23.3 GVET058F51
         K19S10N  C2019 08 31.60094101 01 29.522+15 00 26.44         23.2 GVET058F51
         K19S10N* C2019 09 26.45377 00 49 16.860+06 33 35.27         22.4 wUET058F51
         K19S10N  C2019 09 26.46615 00 49 16.090+06 33 12.48         22.4 wUET058F51
         K19S10N  C2019 09 26.47853 00 49 15.339+06 32 50.07         21.9 wUET058F51
         K19S10N  C2019 09 27.44221 00 48 19.217+06 03 06.54         22.0 wUET058F51
         K19S10N  C2019 09 27.45363 00 48 18.479+06 02 45.46         22.2 wUET058F51
         K19S10N  C2019 09 27.47635 00 48 17.024+06 02 02.78         22.3 wUET058F51
         K19S10N KC2019 09 29.26368 00 46 27.81 +05 04 37.5          22.0 RoET058291
         K19S10N KC2019 09 29.26858 00 46 27.49 +05 04 27.4          21.8 RoET058291
         K19S10N KC2019 09 29.27348 00 46 27.14 +05 04 18.3                oET058291
         K19S10N KC2019 10 03.20575300 42 04.29 +02 48 11.0          21.7 VuET058H21
         K19S10N KC2019 10 03.20717200 42 04.19 +02 48 07.7          21.5 VuET058H21
         K19S10N KC2019 10 03.21938100 42 03.27 +02 47 41.4          21.8 VuET058H21
    
    Observer details:
    291 LPL/Spacewatch II.  Observer J. V. Scotti.  1.8-m f/2.7 reflector + CCD.
    F51 Pan-STARRS 1, Haleakala.  Observers J. Bulger, K. Chambers, T. Lowe, E. 
       Magnier, A. Schultz, M. Willman.  Measurers S. Chastel, M. Huber, Y. 
       Ramanjooloo, R. Wainscoat, R. Weryk, K. Chambers, T. de Boer, L. Denneau, J. 
       Fairlamb, H. Flewelling, C.-C. Lin, E. Magnier.  1.8-m Ritchey-Chretien + 
       CCD.
    H21 Astronomical Research Observatory, Westfield.  Observer R. Holmes.  
        Measurers S. Foglia, L. Buzzi, T. Linder, R. Holmes.  1.3-m f/4.0 
       astrograph + CCD.
    
    Orbital elements:
    2019 SN10                                                Earth MOID = 0.1494 AU
    Epoch 2019 Apr. 27.0 TT = JDT 2458600.5                 Veres
    M 272.49140              (2000.0)            P               Q
    n   0.31341232     Peri.  287.14783     -0.42082615     -0.90488784
    a   2.1464726      Node   188.60679     +0.90564589     -0.42313184
    e   0.5790974      Incl.   25.27707     -0.05206605     -0.04623250
    P   3.14           H   21.0           G   0.15           U   5
    Residuals in seconds of arc
    190831 F51  0.1-  0.2+    190927 F51  0.0   0.2-    190929 291  0.0   0.4+
    190831 F51  0.1+  0.2-    190927 F51  0.0   0.2+    191003 H21  0.1-  0.0
    190926 F51  0.1-  0.0     190927 F51  0.0   0.2+    191003 H21  0.0   0.2-
    190926 F51  0.1-  0.2-    190929 291  0.2+  0.3+    191003 H21  0.2-  0.0
    190926 F51  0.1+  0.0     190929 291  0.3+  0.1-
    
    Ephemeris:
    2019 SN10                a,e,i = 2.15, 0.58, 25                  q = 0.9035
    Date    TT    R. A. (2000) Decl.     Delta      r    Elong.  Phase     V
    2019 09 03    01 01 22.5 +14 33 51   1.0416  1.9248   139.6    19.8    23.5
    ...
    2019 09 18    00 56 01.4 +10 18 23   0.8413  1.8106   157.3    12.4    22.7
    ...
    2019 09 26    00 49 42.7 +06 47 21   0.7541  1.7479   168.2     6.7    22.1
    ...
    2019 10 02    00 43 27.7 +03 31 28   0.6996  1.7001   176.7     1.9    21.6
    2019 10 03    00 42 18.6 +02 55 47   0.6915  1.6921   177.8     1.3    21.5
    2019 10 04    00 41 07.8 +02 19 17   0.6837  1.6840   178.1     1.2    21.5
    ...
    2019 10 10    00 33 33.2 -01 35 16   0.6429  1.6355   169.8     6.2    21.6
    ...
    2019 10 18    00 22 39.5 -07 18 23   0.6049  1.5700   156.5    14.6    21.7
    ...
    2019 11 02    00 03 43.2 -18 06 17   0.5788  1.4455   132.0    30.7    21.9
    
    A. U. Tomatic                (C) Copyright 2019 MPC           M.P.E.C. 2019-T58
    


    Read MPEC 2019-T57 Read MPEC 2019-T59


    MPEC number:

    Enter an MPEC number in one of the following forms:

    • 1997-B01 (the full form)
    • J97B01 (the packed version of the full form)
    • B01 (the abbreviated form)